Location: Warner Observatory
(35.1353°N, 89.5455°W)
Time: 19:17:40
(UTC-06:00)

Hubble Space Telescope - Visible Passes

Search period start: 27 January 2020 00:00
Search period end: 06 February 2020 00:00
Orbit: 536 x 540 km, 28.5° (Epoch: 26 January)

Date Brightness Start Highest point End Pass type
(mag) Time Alt. Az. Time Alt. Az. Time Alt. Az.
27 Jan 3.5 06:30:03 10° S 06:32:04 13° SSE 06:34:06 10° SE visible
28 Jan 3.4 06:18:47 10° SSW 06:21:21 16° SSE 06:23:55 10° ESE visible
29 Jan 3.2 06:07:43 10° SSW 06:10:38 19° SSE 06:13:33 10° ESE visible
30 Jan 2.9 05:56:45 10° SW 05:59:55 22° SSE 06:03:07 10° ESE visible
31 Jan 2.6 05:45:52 10° SW 05:49:14 24° SSE 05:52:36 10° ESE visible
01 Feb 2.4 05:35:59 15° SW 05:38:32 27° S 05:42:01 10° ESE visible
02 Feb 2.2 05:26:07 21° SSW 05:27:50 29° S 05:31:26 10° ESE visible
03 Feb 2.0 05:16:11 27° SSW 05:17:10 31° S 05:20:49 10° ESE visible
04 Feb 1.9 05:06:13 31° S 05:06:29 32° S 05:10:10 10° ESE visible
05 Feb 2.1 04:56:12 31° SSE 04:56:12 31° SSE 04:59:31 10° ESE visible
